Location: Carr Mill
(33.2054°N, 85.9439°W)
Time: 22:48:31
(UTC+00:00)

Cosmos 968 Rocket - Pass Details

Date: 29 October 2020
Orbit: 741 x 770 km, 74.0° (Epoch: 28 November)

Event Time Altitude Azimuth Distance (km) Brightness Sun altitude
Rises 23:19:51 0° 356° (N) 3,225 6.6 -6.0°
Reaches altitude 10° 23:22:36 10° 9° (N) 2,290 5.8 -6.5°
Maximum altitude 23:26:55 26° 66° (ENE) 1,452 4.4 -7.4°
Drops below altitude 10° 23:31:11 10° 122° (ESE) 2,264 5.5 -8.3°
Sets 23:33:53 0° 135° (SE) 3,179 6.4 -8.9°
